Weather in Köýtendag

Turkmenistan     37°30′47″N   66°00′49″E
temp.,
°C
wind,
m/s
gust,
m/s
humid.,
%
clouds,
%
prec.,
mm/h
press.,
hPa
HPBL,
m
27 october, wed
wed2723:00+17nnw342620 0.0 102322
02:00+16n2328100 0.0 102211
05:00+15se2230100 0.0 102212
08:00+15sse2334100 0.0 102354
11:00+20nnw332489 0.0 1023549
14:00+23nw5420100 0.0 10211603
17:00+21nw6826100 0.0 1021518
20:00+18nw61135100 0.0 1022202
28 october, thu
thu2823:00+15nw101444100 0.0 1023292
02:00+12nw101353100 0.0 1024374
05:00+11nw91261100 0.0 1025412
08:00+11nw9126782 0.0 1027506
11:00+14nw9105292 0.0 1028899
14:00+16nnw88405 0.0 10261227
17:00+15nw77421 0.0 1026972
20:00+12nw58492 0.0 1027157
29 october, fri
fri2923:00+11nw47545 0.0 1027113
02:00+10nw44550 0.0 102744
05:00+9nw22580 0.0 102712
08:00+10wnw11520 0.0 102820
11:00+15se12390 0.0 1028713
14:00+18ene23340 0.0 10261171
17:00+18n33350 0.0 1027261
20:00+15n22420 0.0 102811
30 october, sat
sat3023:00+13ne11470 0.0 102711
02:00+12nw01530 0.0 102710
05:00+11wnw11560 0.0 102710
08:00+13nw11480 0.0 102910
11:00+19n113197 0.0 1028538
14:00+22n12245 0.0 10261011
17:00+22n33257 0.0 102648
20:00+18nnw442893 0.0 102725
31 october, sun
sun3123:00+17n222885 0.0 102711
02:00+15n113196 0.0 102611
05:00+14w223298 0.0 102711
08:00+15wnw1230100 0.0 102812
11:00+20nw222192 0.0 1028541
14:00+23nw441855 0.0 10261254
17:00+21wnw4616100 0.0 1026113
20:00+17nw45195 0.0 102744